Weather in Derazhnya

Ukraine / Khmelnitsky District     49˚16′08″N   27˚25′49″E
temp.,
°C
wind,
m/s
gust,
m/s
humid.,
%
clouds,
%
prec.,
mm/h
press.,
hPa
HPBL,
m
3 december, thu
thu323:00−1˚se378596 0.0 1025366
02:00−3˚se499265 0.0 1025290
05:00−1˚sse479272 0.0 1024341
08:00se499486 0.1 1024388
11:00+1˚se61187100 0.1 1023523
14:00+2˚se61087100 0.1 1021523
17:00+1˚se61193100 0.0 1020536
20:00+2˚sse61296100 0.0 1020573
4 december, fri
fri423:00+2˚se61395100 0.0 1019506
02:00+3˚se71297100 0.0 1018594
05:00+2˚sse7149398 0.0 1017639
08:00+3˚sse8159199 0.0 1017738
11:00+5˚sse101781100 0.0 1017885
14:00+7˚sse10167687 0.0 1015924
17:00+6˚sse10178884 0.0 1016901
20:00+6˚sse9168792 0.0 1017828
5 december, sat
sat523:00+6˚sse91589100 0.0 1018728
02:00+6˚sse91588100 0.0 1019786
05:00+6˚sse81587100 0.0 1019679
08:00+5˚sse9159086 0.0 1020663
11:00+6˚sse91482100 0.0 1021782
14:00+6˚sse91479100 0.0 1022782
17:00+4˚se8148774 0.0 1022545
20:00+3˚se9138679 0.0 1024570
6 december, sun
sun623:00+1˚se8148786 0.0 1024496
02:00se8129087 0.0 1025464
05:00se81290100 0.0 1025520
08:00se81284100 0.0 1025615
11:00se81279100 0.0 1026644
14:00+1˚se8137393 0.0 1024677
17:00−1˚se7147348 0.0 1024668
20:00−2˚se8167225 0.0 1025706
7 december, mon
mon723:00−2˚se8157319 0.0 1025739
02:00−2˚se9167650 0.0 1024644
05:00−1˚se9157983 0.0 1024688
08:00−2˚se9167687 0.0 1023600
11:00se9147289 0.0 1024687
14:00se8137194 0.0 1023724
17:00−2˚se71370100 0.0 1023646
20:00−2˚se81469100 0.0 1024646